[[{"header":{"parameterUnit":"m.s-1","parameterCategory":2,"la1":30.2991,"la2":30.254,"lo1":-89.0895,"lo2":-89.0444,"dy":0.0017,"dx":0.0017,"nx":28,"ny":28,"refTime":"2025-07-13T03:00:00:Z","depth":"0","parameterNumber":2,"parameterNumberName":"U-component_of_CURRENTS"},"data":[0,0,0,0,0,0,0,0,0,0,0,0,0,0,0,0,0,0,0,0,0,0,0,0,0,0,0,0,0,0,0,0,0,0,0,0,0,0,0,0,0,0,0,0,0,0,0,0,0,0,0,0,0,0,0,0,0,0,-0.2257,-0.2258,0,-0.2322,-0.2323,-0.2323,-0.2357,-0.2357,-0.2358,-0.2358,-0.2359,-0.2359,-0.2358,0,0,0,0,0,0,0,0,0,0,0,0,0,-0.2208,-0.2208,-0.2257,-0.2258,-0.2259,-0.2322,-0.2323,-0.2323,-0.2357,-0.2357,-0.2358,-0.2358,-0.2359,-0.2359,-0.2358,0,0,0,0,0,0,0,0,0,0,0,0,0,-0.2243,-0.2208,-0.2257,-0.2286,-0.229,-0.2322,-0.2323,-0.2323,-0.2357,-0.2357,-0.2358,-0.2358,-0.2359,-0.2359,-0.2358,-0.2345,0,0,-0.2357,-0.2357,0,0,0,0,0,0,0,0,-0.2241,-0.2244,-0.2281,-0.2284,-0.2288,-0.2335,-0.2306,-0.2329,-0.2357,-0.2328,-0.2358,-0.2359,-0.2347,-0.2347,-0.2355,-0.2345,-0.2345,-0.2357,-0.2357,-0.2356,-0.2356,0,0,0,0,0,0,0,-0.2238,-0.2242,-0.228,-0.2282,-0.2287,-0.2312,-0.2317,-0.2311,-0.233,-0.233,-0.2334,-0.2346,-0.2348,-0.2355,-0.2355,-0.2345,-0.2357,-0.2356,-0.2356,-0.2356,-0.2289,-0.2287,0,0,0,0,0,0,-0.2234,-0.2239,-0.2278,-0.2282,-0.2269,-0.2312,-0.2318,-0.2317,-0.2331,-0.2336,-0.2346,-0.2348,-0.2355,-0.2355,-0.2355,-0.2323,-0.2356,-0.2356,-0.2356,-0.229,-0.2289,-0.2287,0,0,0,0,0,0,-0.2232,-0.2236,-0.2275,-0.2266,-0.2273,-0.2313,-0.2311,-0.2318,-0.2327,-0.2344,-0.2347,-0.2349,-0.2356,-0.2355,-0.235,-0.2324,-0.2356,-0.2355,-0.2292,-0.229,-0.2288,-0.227,0,0,0,0,0,0,-0.223,-0.2235,-0.2224,-0.2265,-0.2273,-0.2283,-0.2312,-0.2319,-0.2335,-0.2338,-0.2347,-0.2348,-0.2356,-0.235,-0.2349,-0.2324,-0.2355,-0.2294,-0.2291,-0.2288,-0.2273,-0.2268,-0.2264,0,0,0,0,0,-0.2228,-0.2206,-0.2222,-0.2227,-0.2259,-0.2282,-0.2288,-0.2317,-0.2334,-0.2328,-0.2342,-0.2348,-0.2331,-0.2349,-0.2348,-0.2322,-0.2295,-0.2292,-0.2289,-0.2275,-0.2269,-0.2264,0,0,0,0,0,0,-0.2177,-0.2209,-0.2227,-0.2216,-0.2245,-0.2289,-0.2284,-0.2313,-0.2321,-0.2322,-0.2341,-0.2342,-0.2323,-0.2322,-0.2342,-0.2291,-0.2308,-0.2304,-0.2298,-0.2292,-0.2287,-0.2286,-0.2355,0,0,0,0,0,-0.2162,-0.2153,-0.2197,-0.2188,-0.2198,-0.2242,-0.2254,-0.228,-0.23,-0.2306,-0.2317,-0.2316,-0.2307,-0.2302,-0.2293,-0.2273,-0.2272,-0.2249,-0.2244,-0.224,-0.2236,-0.2221,-0.2215,-0.2276,-0.2276,-0.2276,0,0,-0.2143,-0.2158,-0.2154,-0.2177,-0.2198,-0.2206,-0.2248,-0.2263,-0.2266,-0.2301,-0.2294,-0.2303,-0.2297,-0.2276,-0.2265,-0.2274,-0.222,-0.2236,-0.2233,-0.2231,-0.2217,-0.2211,-0.2206,-0.2274,-0.2274,-0.2274,0,0,-0.2103,-0.211,-0.2094,-0.2109,-0.2141,-0.2172,-0.2175,-0.2218,-0.2228,-0.2232,-0.2252,-0.2255,-0.2239,-0.224,-0.2235,-0.2197,-0.2198,-0.2179,-0.2156,-0.2141,-0.2137,-0.2133,-0.2121,-0.2116,-0.2176,-0.2176,-0.2175,0,-0.2082,-0.207,-0.2094,-0.2084,-0.2097,-0.2153,-0.2152,-0.2164,-0.2201,-0.2207,-0.2219,-0.2214,-0.2221,-0.2199,-0.2189,-0.2188,-0.2178,-0.2184,-0.2137,-0.2133,-0.213,-0.2119,-0.2114,-0.2174,-0.2174,-0.2175,-0.2175,0,-0.2039,-0.2029,-0.2018,-0.2028,-0.2039,-0.2046,-0.208,-0.209,-0.2117,-0.214,-0.2131,-0.2148,-0.2148,-0.2142,-0.2158,-0.2127,-0.2128,-0.2138,-0.2159,-0.2123,-0.2113,-0.2108,-0.2172,-0.2173,-0.2173,-0.2174,0,0,-0.2002,-0.1994,-0.1991,-0.1991,-0.2015,-0.2027,-0.2021,-0.2045,-0.2054,-0.2066,-0.2068,-0.2061,-0.2086,-0.2081,-0.2097,-0.2089,-0.2066,-0.21,-0.21,-0.21,-0.2028,-0.2048,-0.2045,-0.2066,-0.2065,-0.2064,-0.2032,0,-0.1971,-0.1943,-0.1952,-0.1939,-0.1933,-0.1971,-0.1968,-0.1991,-0.2015,-0.2027,-0.2036,-0.204,-0.2053,-0.2064,-0.2053,-0.2075,-0.2051,-0.2073,-0.2052,-0.2051,-0.2083,-0.2039,-0.2041,-0.2014,-0.2027,-0.2027,-0.2026,0,-0.1931,-0.1922,-0.1896,-0.1907,-0.191,-0.1911,-0.1938,-0.1944,-0.1964,-0.1982,-0.1984,-0.2003,-0.2,-0.2016,-0.2003,-0.2015,-0.2009,-0.2017,-0.2016,-0.2037,-0.2062,-0.205,-0.2005,-0.1877,-0.2019,-0.2019,-0.202,0,-0.1894,-0.1888,-0.1869,-0.1868,-0.1882,-0.1883,-0.1902,-0.1927,-0.194,-0.1955,-0.1974,-0.1965,-0.1978,-0.1961,-0.1979,-0.1988,-0.1963,-0.1981,-0.1981,-0.1982,-0.1982,-0.1985,-0.1822,-0.1942,-0.1942,-0.1942,-0.1942,0,-0.1851,-0.1836,-0.1852,-0.1834,-0.1832,-0.1856,-0.1862,-0.188,-0.1913,-0.1933,-0.1948,-0.1964,-0.1964,-0.1961,-0.1959,-0.1957,-0.1941,-0.1965,-0.197,-0.1975,-0.1978,-0.1867,-0.1776,-0.1941,-0.1941,-0.1942,-0.1942,0,-0.1785,-0.1797,-0.1775,-0.1791,-0.1802,-0.1795,-0.1837,-0.1853,-0.1887,-0.1914,-0.192,-0.1958,-0.1959,-0.1948,-0.1938,-0.1945,-0.1881,-0.1929,-0.1938,-0.1945,-0.1849,-0.1757,-0.1689,-0.164,-0.1932,-0.1932,-0.1932,0,-0.1746,-0.1721,-0.1728,-0.1729,-0.1731,-0.1743,-0.1765,-0.182,-0.1851,-0.1917,-0.1933,-0.1947,-0.1963,-0.1953,-0.197,-0.1952,-0.185,-0.1928,-0.1948,-0.1825,-0.1727,-0.1747,-0.1712,-0.1936,-0.1936,-0.1936,-0.1936,0,-0.1662,-0.166,-0.1639,-0.1641,-0.166,-0.1688,-0.1729,-0.1757,-0.1836,-0.1878,-0.1938,-0.1957,-0.1985,-0.2007,-0.199,-0.196,-0.1845,-0.1933,-0.1793,-0.1696,-0.1718,-0.168,-0.1973,-0.1938,-0.1938,-0.1938,-0.1937,-0.1937,-0.1598,-0.156,-0.1543,-0.1536,-0.1574,-0.1622,-0.1616,-0.1704,-0.1756,-0.182,-0.1907,-0.1945,-0.2012,-0.2018,-0.1968,-0.1865,-0.1859,-0.1795,-0.169,-0.1722,-0.1677,-0.1976,-0.196,-0.196,-0.196,-0.196,-0.196,0,-0.152,-0.1473,-0.1453,-0.145,-0.1468,-0.1519,-0.1581,-0.1574,-0.1623,-0.1759,-0.182,-0.1945,-0.1931,-0.1914,-0.185,-0.1668,-0.1664,-0.1508,-0.1491,-0.1463,-0.1709,-0.1709,-0.1653,-0.1653,-0.1653,-0.1653,-0.1653,-0.1653,-0.1475,-0.1406,-0.1378,-0.1343,-0.1354,-0.1347,-0.1363,-0.1376,-0.1447,-0.155,-0.1674,-0.1759,-0.1639,-0.1585,-0.1375,-0.133,-0.1183,-0.1181,-0.1089,-0.1185,-0.1204,-0.1221,-0.12,-0.1038,-0.1037,-0.0931,-0.0928,-0.0927]},{"header":{"parameterUnit":"m.s-1","parameterCategory":2,"la1":30.2991,"la2":30.254,"lo1":-89.0895,"lo2":-89.0444,"dy":0.0017,"dx":0.0017,"nx":28,"ny":28,"refTime":"2025-07-13T03:00:00:Z","depth":"0","parameterNumber":3,"parameterNumberName":"V-component_of_CURRENTS"},"data":[0,0,0,0,0,0,0,0,0,0,0,0,0,0,0,0,0,0,0,0,0,0,0,0,0,0,0,0,0,0,0,0,0,0,0,0,0,0,0,0,0,0,0,0,0,0,0,0,0,0,0,0,0,0,0,0,0,0,-0.1172,-0.1171,0,-0.1123,-0.1122,-0.1121,-0.1143,-0.1144,-0.1146,-0.1147,-0.0933,-0.0926,-0.0919,0,0,0,0,0,0,0,0,0,0,0,0,0,-0.1187,-0.1187,-0.1172,-0.1171,-0.1171,-0.1123,-0.1122,-0.1121,-0.1143,-0.1144,-0.1146,-0.1148,-0.0936,-0.0927,-0.0919,0,0,0,0,0,0,0,0,0,0,0,0,0,-0.1161,-0.1187,-0.1172,-0.1178,-0.1179,-0.1123,-0.1122,-0.1121,-0.1142,-0.1144,-0.1147,-0.1149,-0.0938,-0.0928,-0.0918,-0.0807,0,0,-0.0885,-0.088,0,0,0,0,0,0,0,0,-0.1162,-0.116,-0.1178,-0.1178,-0.1178,-0.1144,-0.1049,-0.1009,-0.1142,-0.1153,-0.1147,-0.115,-0.0988,-0.0974,-0.0958,-0.0797,-0.0788,-0.0884,-0.0878,-0.0873,-0.087,0,0,0,0,0,0,0,-0.1164,-0.1161,-0.1149,-0.1177,-0.1177,-0.1151,-0.115,-0.1042,-0.1053,-0.1152,-0.1154,-0.1153,-0.0987,-0.0968,-0.0953,-0.0785,-0.0884,-0.0875,-0.0868,-0.0864,-0.0491,-0.0487,0,0,0,0,0,0,-0.1179,-0.1164,-0.1151,-0.1148,-0.1179,-0.1149,-0.1148,-0.115,-0.1058,-0.1049,-0.1151,-0.1154,-0.0985,-0.0965,-0.0945,-0.081,-0.0873,-0.0863,-0.0857,-0.0494,-0.049,-0.0486,0,0,0,0,0,0,-0.1179,-0.1178,-0.1153,-0.1157,-0.1152,-0.1148,-0.1149,-0.1148,-0.1134,-0.106,-0.1047,-0.114,-0.0986,-0.096,-0.0838,-0.0802,-0.0858,-0.0849,-0.0499,-0.0493,-0.0488,-0.0538,0,0,0,0,0,0,-0.118,-0.1179,-0.1172,-0.1158,-0.1153,-0.1114,-0.1147,-0.1146,-0.1131,-0.1135,-0.1044,-0.1028,-0.0986,-0.0855,-0.0828,-0.0788,-0.0841,-0.0503,-0.0496,-0.049,-0.0541,-0.0535,-0.053,0,0,0,0,0,-0.1181,-0.1166,-0.1172,-0.1169,-0.1148,-0.1113,-0.1106,-0.1109,-0.1129,-0.1107,-0.1046,-0.1031,-0.0794,-0.0843,-0.0812,-0.0769,-0.0506,-0.0498,-0.049,-0.0543,-0.0536,-0.053,0,0,0,0,0,0,-0.1155,-0.1166,-0.1173,-0.1158,-0.1136,-0.1118,-0.1101,-0.1101,-0.1039,-0.1039,-0.098,-0.0955,-0.0837,-0.0776,-0.0833,-0.0635,-0.0647,-0.0633,-0.0698,-0.069,-0.0685,-0.0728,-0.0832,0,0,0,0,0,-0.1148,-0.1149,-0.1142,-0.1124,-0.112,-0.1108,-0.1093,-0.1091,-0.1044,-0.1024,-0.0957,-0.0869,-0.0774,-0.0718,-0.0622,-0.0503,-0.0496,-0.0452,-0.0446,-0.0443,-0.0451,-0.0406,-0.0401,-0.046,-0.046,-0.046,0,0,-0.1129,-0.1137,-0.1134,-0.1119,-0.1109,-0.1087,-0.1104,-0.1078,-0.1046,-0.0999,-0.0914,-0.0841,-0.0736,-0.0621,-0.0562,-0.0571,-0.0421,-0.0433,-0.0431,-0.0442,-0.0398,-0.0393,-0.0389,-0.0455,-0.0456,-0.0456,0,0,-0.11,-0.1104,-0.11,-0.1085,-0.1073,-0.106,-0.1054,-0.1023,-0.0999,-0.0902,-0.0867,-0.0779,-0.0619,-0.0559,-0.0504,-0.0396,-0.0395,-0.0351,-0.0359,-0.0315,-0.0312,-0.0309,-0.0316,-0.0313,-0.0349,-0.0349,-0.035,0,-0.1078,-0.1081,-0.1083,-0.1074,-0.1066,-0.1053,-0.1036,-0.0992,-0.0917,-0.0885,-0.0874,-0.0677,-0.0595,-0.0481,-0.0452,-0.039,-0.0384,-0.0408,-0.0317,-0.0314,-0.031,-0.0317,-0.0314,-0.0351,-0.0351,-0.0351,-0.035,0,-0.1053,-0.105,-0.1042,-0.1039,-0.1017,-0.0997,-0.096,-0.0916,-0.0884,-0.0844,-0.0726,-0.0621,-0.0521,-0.0466,-0.0425,-0.0342,-0.0355,-0.0327,-0.0359,-0.0309,-0.0317,-0.0313,-0.0353,-0.0352,-0.0352,-0.0352,0,0,-0.1026,-0.103,-0.1029,-0.1036,-0.1006,-0.0992,-0.093,-0.088,-0.0856,-0.0754,-0.0705,-0.0546,-0.0521,-0.0455,-0.0392,-0.0346,-0.032,-0.0331,-0.0328,-0.0384,-0.0265,-0.0402,-0.041,-0.0287,-0.0286,-0.0285,-0.0293,0,-0.1011,-0.1011,-0.1005,-0.0987,-0.0988,-0.0962,-0.0915,-0.086,-0.0801,-0.0738,-0.0638,-0.0553,-0.0505,-0.0467,-0.0411,-0.0331,-0.0306,-0.0323,-0.0264,-0.0263,-0.0429,-0.0408,-0.0429,-0.0449,-0.0289,-0.0288,-0.0288,0,-0.0995,-0.1006,-0.1,-0.1001,-0.0999,-0.0977,-0.0939,-0.0891,-0.0798,-0.0753,-0.0668,-0.0595,-0.0495,-0.0469,-0.035,-0.0366,-0.0326,-0.0278,-0.0277,-0.0387,-0.0391,-0.046,-0.0447,-0.0207,-0.0281,-0.0282,-0.0282,0,-0.1004,-0.1002,-0.101,-0.1006,-0.0992,-0.0983,-0.0967,-0.0897,-0.087,-0.0771,-0.0747,-0.0617,-0.0562,-0.0472,-0.0385,-0.0361,-0.0288,-0.0238,-0.033,-0.0341,-0.0339,-0.0353,-0.0128,-0.0178,-0.0178,-0.0178,-0.0178,0,-0.0999,-0.1002,-0.1023,-0.1027,-0.1039,-0.1015,-0.1005,-0.0964,-0.0912,-0.0889,-0.0769,-0.0733,-0.056,-0.0495,-0.041,-0.0388,-0.0313,-0.0349,-0.035,-0.0358,-0.0373,-0.015,0.003,-0.0178,-0.0178,-0.0178,-0.0178,0,-0.099,-0.1005,-0.1021,-0.1035,-0.1045,-0.105,-0.1058,-0.1054,-0.0997,-0.0966,-0.0941,-0.0817,-0.0745,-0.0623,-0.0487,-0.0452,-0.0296,-0.0408,-0.0467,-0.0477,-0.0362,-0.0185,-0.0057,0.0029,-0.0503,-0.0506,-0.0509,0,-0.0982,-0.0992,-0.1038,-0.1071,-0.108,-0.1099,-0.1123,-0.1095,-0.1098,-0.1028,-0.1026,-0.0944,-0.0917,-0.0809,-0.0723,-0.0653,-0.0402,-0.062,-0.0575,-0.0377,-0.0176,-0.0105,-0.0033,-0.058,-0.0583,-0.0586,-0.0588,0,-0.0966,-0.0989,-0.1011,-0.109,-0.1135,-0.1181,-0.1212,-0.1233,-0.1202,-0.1201,-0.1191,-0.1168,-0.1088,-0.1042,-0.0968,-0.0874,-0.0456,-0.068,-0.0407,-0.018,-0.0145,-0.0057,-0.0576,-0.0611,-0.0609,-0.0607,-0.0606,-0.0605,-0.0957,-0.0977,-0.1033,-0.1102,-0.1172,-0.1252,-0.129,-0.1352,-0.1394,-0.1436,-0.1375,-0.1407,-0.1246,-0.1166,-0.1062,-0.0743,-0.0665,-0.0572,-0.0368,-0.0315,-0.0238,-0.0872,-0.0956,-0.0956,-0.0956,-0.0956,-0.0955,0,-0.0956,-0.0988,-0.1051,-0.1144,-0.1234,-0.1263,-0.1347,-0.1408,-0.1504,-0.1606,-0.1654,-0.151,-0.1375,-0.1112,-0.0715,-0.0441,-0.0337,-0.019,0.0024,0.0088,-0.0409,-0.0417,-0.047,-0.047,-0.047,-0.0471,-0.0471,-0.0471,-0.096,-0.1014,-0.1053,-0.1186,-0.1254,-0.1363,-0.1414,-0.1534,-0.163,-0.1727,-0.171,-0.161,-0.0842,-0.0344,0.0138,0.0191,0.0515,0.047,0.0664,0.0477,0.046,0.0445,0.0479,0.0616,0.0617,0.1063,0.1069,0.1074]}],[{"header":{"parameterUnit":"m.s-1","parameterCategory":2,"la1":30.2991,"la2":30.254,"lo1":-89.0895,"lo2":-89.0444,"dy":0.0017,"dx":0.0017,"nx":28,"ny":28,"refTime":"2025-07-13T03:00:00:Z","depth":"2","parameterNumber":2,"parameterNumberName":"U-component_of_CURRENTS"},"data":[0,0,0,0,0,0,0,0,0,0,0,0,0,0,0,0,0,0,0,0,0,0,0,0,0,0,0,0,0,0,0,0,0,0,0,0,0,0,0,0,0,0,0,0,0,0,0,0,0,0,0,0,0,0,0,0,0,0,-0.266,-0.2661,0,-0.2649,-0.2648,-0.2648,-0.2648,-0.2649,-0.265,-0.265,-0.2548,-0.2545,-0.2541,0,0,0,0,0,0,0,0,0,0,0,0,0,-0.2567,-0.2569,-0.266,-0.2661,-0.2661,-0.2649,-0.2648,-0.2647,-0.2648,-0.2649,-0.265,-0.2651,-0.2549,-0.2545,-0.2541,0,0,0,0,0,0,0,0,0,0,0,0,0,-0.2581,-0.257,-0.266,-0.2664,-0.2665,-0.2649,-0.2648,-0.2647,-0.2648,-0.2649,-0.265,-0.2651,-0.2551,-0.2546,-0.2541,-0.2487,0,0,-0.2525,-0.2523,0,0,0,0,0,0,0,0,-0.2581,-0.2584,-0.2663,-0.2664,-0.2665,-0.2656,-0.2578,-0.2591,-0.2647,-0.2648,-0.265,-0.2651,-0.2579,-0.2572,-0.256,-0.2482,-0.2478,-0.2525,-0.2521,-0.2519,-0.2518,0,0,0,0,0,0,0,-0.258,-0.2584,-0.2649,-0.2664,-0.2665,-0.2628,-0.2631,-0.258,-0.2601,-0.2648,-0.2649,-0.2658,-0.2578,-0.2565,-0.2557,-0.2477,-0.2525,-0.252,-0.2517,-0.2515,-0.2388,-0.2388,0,0,0,0,0,0,-0.2599,-0.2584,-0.265,-0.265,-0.2632,-0.263,-0.2633,-0.2653,-0.2604,-0.26,-0.2657,-0.2658,-0.2573,-0.2563,-0.2553,-0.2525,-0.2519,-0.2515,-0.2512,-0.2388,-0.2388,-0.2388,0,0,0,0,0,0,-0.2597,-0.2605,-0.265,-0.262,-0.2624,-0.2632,-0.2653,-0.2652,-0.2659,-0.2612,-0.2606,-0.2667,-0.2573,-0.2561,-0.2524,-0.2519,-0.2512,-0.2508,-0.2389,-0.2388,-0.2388,-0.2443,0,0,0,0,0,0,-0.2595,-0.2605,-0.2615,-0.2622,-0.2627,-0.2652,-0.2652,-0.2652,-0.2664,-0.2666,-0.2618,-0.2609,-0.2573,-0.2532,-0.2519,-0.2512,-0.2504,-0.2389,-0.2389,-0.2388,-0.2442,-0.2444,-0.2447,0,0,0,0,0,-0.2592,-0.2597,-0.2616,-0.2624,-0.2645,-0.2653,-0.2651,-0.2654,-0.2664,-0.2664,-0.2637,-0.2612,-0.2519,-0.2528,-0.2513,-0.2504,-0.2389,-0.2389,-0.2388,-0.244,-0.2444,-0.2447,0,0,0,0,0,0,-0.2551,-0.2599,-0.2619,-0.2638,-0.2655,-0.2656,-0.2649,-0.2664,-0.2643,-0.2641,-0.2604,-0.2592,-0.2562,-0.2522,-0.2533,-0.2466,-0.2451,-0.2447,-0.2495,-0.2498,-0.2501,-0.2494,-0.2499,0,0,0,0,0,-0.2554,-0.2572,-0.2612,-0.2621,-0.2635,-0.2648,-0.265,-0.2661,-0.2651,-0.2644,-0.2614,-0.2575,-0.2541,-0.2515,-0.2475,-0.243,-0.2374,-0.2415,-0.2418,-0.2421,-0.2405,-0.2326,-0.232,-0.2385,-0.2385,-0.2385,0,0,-0.2533,-0.2565,-0.2572,-0.2614,-0.2622,-0.2633,-0.265,-0.2659,-0.266,-0.2631,-0.2606,-0.2585,-0.2534,-0.2495,-0.2476,-0.2463,-0.2373,-0.242,-0.2423,-0.2405,-0.2325,-0.2318,-0.2312,-0.2385,-0.2385,-0.2385,0,0,-0.2504,-0.2541,-0.2551,-0.2573,-0.2608,-0.2618,-0.2632,-0.2648,-0.2648,-0.2631,-0.2616,-0.2591,-0.2532,-0.2496,-0.2471,-0.2457,-0.2398,-0.2453,-0.2449,-0.2374,-0.2368,-0.2362,-0.2285,-0.2272,-0.2446,-0.2446,-0.2446,0,-0.2484,-0.251,-0.2549,-0.2568,-0.2581,-0.2618,-0.2627,-0.2629,-0.2628,-0.2621,-0.2627,-0.2555,-0.2525,-0.2473,-0.248,-0.2462,-0.2411,-0.2447,-0.2378,-0.237,-0.2363,-0.2286,-0.227,-0.2448,-0.2448,-0.2448,-0.2448,0,-0.2462,-0.2492,-0.2495,-0.2539,-0.2554,-0.2565,-0.2594,-0.2597,-0.2609,-0.2612,-0.2582,-0.2543,-0.25,-0.2495,-0.2484,-0.2425,-0.2404,-0.24,-0.2372,-0.236,-0.2279,-0.2262,-0.2452,-0.2451,-0.245,-0.245,0,0,-0.2399,-0.2472,-0.247,-0.2501,-0.2546,-0.2558,-0.2558,-0.2572,-0.2566,-0.2563,-0.253,-0.2504,-0.2504,-0.2474,-0.2458,-0.2399,-0.232,-0.2385,-0.238,-0.2313,-0.2148,-0.2164,-0.2146,-0.2309,-0.2306,-0.2304,-0.2115,0,-0.2374,-0.2411,-0.2444,-0.2466,-0.2496,-0.2529,-0.2524,-0.2539,-0.254,-0.2512,-0.249,-0.2464,-0.249,-0.2475,-0.2422,-0.2341,-0.2277,-0.2371,-0.2165,-0.2159,-0.2178,-0.2127,-0.19,-0.1715,-0.2097,-0.2094,-0.2092,0,-0.2341,-0.2379,-0.2405,-0.2463,-0.2474,-0.2482,-0.249,-0.2495,-0.2476,-0.2473,-0.2451,-0.2439,-0.2374,-0.2392,-0.2242,-0.2304,-0.2232,-0.2168,-0.2159,-0.2138,-0.2142,-0.1787,-0.1669,-0.2063,-0.2065,-0.2067,-0.2069,0,-0.2292,-0.235,-0.2373,-0.2392,-0.2452,-0.2456,-0.2478,-0.248,-0.2469,-0.2451,-0.2418,-0.237,-0.2313,-0.2228,-0.2147,-0.2181,-0.1958,-0.198,-0.1919,-0.1918,-0.1663,-0.1647,-0.1854,-0.1854,-0.1855,-0.1855,-0.1856,0,-0.2265,-0.2279,-0.2357,-0.2372,-0.2382,-0.2438,-0.2428,-0.2442,-0.2422,-0.2385,-0.24,-0.2327,-0.2269,-0.216,-0.2095,-0.1951,-0.1916,-0.1893,-0.1863,-0.168,-0.1668,-0.1926,-0.1937,-0.1848,-0.185,-0.1851,-0.1852,0,-0.22,-0.2257,-0.2288,-0.2351,-0.2367,-0.2374,-0.2404,-0.2385,-0.2392,-0.2325,-0.2318,-0.2257,-0.214,-0.2072,-0.1907,-0.1869,-0.1744,-0.1705,-0.151,-0.1464,-0.1762,-0.1778,-0.1593,-0.1592,-0.1591,-0.159,-0.1589,0,-0.2166,-0.218,-0.2251,-0.226,-0.2287,-0.2313,-0.2313,-0.2357,-0.2332,-0.2268,-0.2207,-0.2114,-0.2024,-0.1814,-0.174,-0.1617,-0.167,-0.1332,-0.1376,-0.1742,-0.1731,-0.1749,-0.1765,-0.1034,-0.1029,-0.1025,-0.1021,0,-0.2077,-0.2105,-0.2126,-0.2168,-0.2185,-0.2207,-0.2219,-0.2204,-0.2223,-0.2173,-0.2075,-0.2005,-0.1833,-0.1617,-0.1501,-0.1388,-0.135,-0.125,-0.159,-0.1196,-0.1215,-0.1207,-0.124,-0.0983,-0.0987,-0.099,-0.0992,-0.0994,-0.1974,-0.1973,-0.2013,-0.2038,-0.2074,-0.2097,-0.2074,-0.211,-0.2086,-0.2051,-0.2011,-0.1851,-0.1644,-0.1429,-0.126,-0.109,-0.1211,-0.1043,-0.1053,-0.1069,-0.1099,-0.1122,-0.0875,-0.0878,-0.088,-0.0883,-0.0885,0,-0.1826,-0.1852,-0.1876,-0.1926,-0.1937,-0.1992,-0.1987,-0.1932,-0.1907,-0.1996,-0.1979,-0.1547,-0.1356,-0.1137,-0.0849,-0.0768,-0.0733,-0.0653,-0.0576,-0.0609,-0.064,-0.065,-0.0305,-0.0305,-0.0305,-0.0305,0,0,-0.1745,-0.1726,-0.1762,-0.177,-0.1805,-0.1766,-0.1741,-0.1669,-0.1691,-0.1669,-0.1604,-0.1753,-0.1349,-0.1039,-0.0798,-0.055,-0.0649,-0.0494,-0.0941,-0.0906,-0.0942,-0.0805,-0.0851,0,0,0,0,0]},{"header":{"parameterUnit":"m.s-1","parameterCategory":2,"la1":30.2991,"la2":30.254,"lo1":-89.0895,"lo2":-89.0444,"dy":0.0017,"dx":0.0017,"nx":28,"ny":28,"refTime":"2025-07-13T03:00:00:Z","depth":"2","parameterNumber":3,"parameterNumberName":"V-component_of_CURRENTS"},"data":[0,0,0,0,0,0,0,0,0,0,0,0,0,0,0,0,0,0,0,0,0,0,0,0,0,0,0,0,0,0,0,0,0,0,0,0,0,0,0,0,0,0,0,0,0,0,0,0,0,0,0,0,0,0,0,0,0,0,-0.0037,-0.0037,0,0.0013,0.0014,0.0015,0.0053,0.0052,0.0052,0.0052,0.0182,0.0186,0.0189,0,0,0,0,0,0,0,0,0,0,0,0,0,0.0031,0.0029,-0.0037,-0.0037,-0.0037,0.0012,0.0014,0.0015,0.0053,0.0052,0.0052,0.0051,0.0181,0.0185,0.019,0,0,0,0,0,0,0,0,0,0,0,0,0,0.0041,0.0029,-0.0037,-0.0018,-0.0017,0.0012,0.0014,0.0016,0.0053,0.0052,0.0052,0.0051,0.0179,0.0185,0.019,0.0239,0,0,0.0208,0.0211,0,0,0,0,0,0,0,0,0.004,0.0039,-0.0021,-0.002,-0.0018,0.0019,0.0085,0.0091,0.0053,0.0035,0.0052,0.0051,0.013,0.014,0.0161,0.0245,0.025,0.0209,0.0212,0.0215,0.0216,0,0,0,0,0,0,0,0.0039,0.0038,-0.0008,-0.0021,-0.002,0.0031,0.0031,0.0087,0.0094,0.0037,0.0038,0.003,0.0132,0.0155,0.0165,0.0252,0.0209,0.0214,0.0217,0.0219,0.0358,0.0358,0,0,0,0,0,0,0.001,0.0036,-0.001,-0.0008,0.0001,0.0029,0.003,0.0014,0.0091,0.0099,0.003,0.0031,0.0146,0.0158,0.0169,0.0172,0.0215,0.022,0.0223,0.0357,0.0358,0.0358,0,0,0,0,0,0,0.0011,0.0005,-0.0012,0.001,0.001,0.0026,0.001,0.0015,0.0002,0.0084,0.0095,0.0005,0.0146,0.0161,0.0195,0.0179,0.0223,0.0228,0.0357,0.0358,0.0358,0.0215,0,0,0,0,0,0,0.0013,0.0005,-0.0017,0.0007,0.0007,-0.0019,0.001,0.0017,-0.0004,-0.0003,0.0067,0.008,0.0146,0.0186,0.0201,0.0188,0.0232,0.0357,0.0357,0.0358,0.022,0.0211,0.0203,0,0,0,0,0,0.0015,-0.0019,-0.0018,-0.0024,-0.0024,-0.0021,-0.0016,0.0002,-0.0006,-0.0013,0.0033,0.0076,0.02,0.019,0.0208,0.0196,0.0357,0.0357,0.0358,0.0224,0.0213,0.0203,0,0,0,0,0,0,-0.0,-0.0019,-0.0017,-0.0055,-0.0051,-0.0019,-0.0032,-0.0026,0.0003,-0.0004,0.0073,0.0091,0.0117,0.018,0.0167,0.0242,0.0288,0.0292,0.018,0.0171,0.0163,0.015,0.0237,0,0,0,0,0,-0.0017,-0.0048,-0.0047,-0.0077,-0.0085,-0.0067,-0.0068,-0.0062,-0.0036,-0.0026,0.0021,0.0082,0.0141,0.0168,0.0231,0.0265,0.0335,0.0275,0.0266,0.0258,0.0263,0.0363,0.0363,0.0359,0.0359,0.0359,0,0,-0.0031,-0.0047,-0.0064,-0.0083,-0.0079,-0.0087,-0.0068,-0.009,-0.009,-0.0014,-0.0004,0.0046,0.0142,0.0182,0.0201,0.0226,0.029,0.0259,0.0251,0.0261,0.0364,0.0364,0.0364,0.036,0.036,0.036,0,0,-0.0066,-0.0093,-0.0125,-0.0128,-0.0146,-0.013,-0.0152,-0.0143,-0.0136,-0.0122,-0.0062,-0.0026,0.0054,0.0125,0.0172,0.0158,0.0238,0.0172,0.0122,0.0217,0.0218,0.0219,0.0273,0.028,0.0172,0.0172,0.0171,0,-0.008,-0.0124,-0.0131,-0.0155,-0.0164,-0.016,-0.0181,-0.0167,-0.0146,-0.0135,-0.0137,-0.002,0.0036,0.0114,0.01,0.0138,0.0191,0.0142,0.0203,0.0207,0.0211,0.0266,0.0276,0.0165,0.0166,0.0166,0.0167,0,-0.0131,-0.0163,-0.0187,-0.0212,-0.0215,-0.0243,-0.0228,-0.0232,-0.0235,-0.0212,-0.0171,-0.0093,-0.0017,-0.0001,0.0038,0.0097,0.0121,0.0172,0.0219,0.0202,0.0262,0.0275,0.0155,0.0158,0.016,0.0161,0,0,-0.0173,-0.0213,-0.0225,-0.0239,-0.0254,-0.0261,-0.0264,-0.0254,-0.0252,-0.0233,-0.0204,-0.0139,-0.0114,-0.0057,0.0001,0.0066,0.0109,0.0109,0.0117,0.0142,0.0287,0.0258,0.027,0.0165,0.0167,0.0169,0.0302,0,-0.0213,-0.027,-0.0272,-0.0308,-0.0335,-0.0317,-0.0309,-0.0296,-0.028,-0.0249,-0.0184,-0.0136,-0.0126,-0.0098,-0.0037,0.0089,0.0144,0.0067,0.0318,0.0325,0.0286,0.0286,0.0375,0.0497,0.0316,0.0318,0.032,0,-0.0268,-0.03,-0.0352,-0.0356,-0.0365,-0.0379,-0.0367,-0.0361,-0.0309,-0.0289,-0.0241,-0.0181,-0.0098,-0.0079,0.0103,0.005,0.0144,0.0234,0.0243,0.0281,0.0322,0.0496,0.0529,0.0343,0.0341,0.0339,0.0338,0,-0.0313,-0.0351,-0.0397,-0.0407,-0.0412,-0.0424,-0.0426,-0.0392,-0.037,-0.0319,-0.0278,-0.0184,-0.0107,0.0016,0.0144,0.014,0.0349,0.0389,0.0453,0.0452,0.0613,0.062,0.0526,0.0525,0.0525,0.0525,0.0524,0,-0.0365,-0.0398,-0.0431,-0.0463,-0.0497,-0.0482,-0.0496,-0.0479,-0.0423,-0.0371,-0.0313,-0.0225,-0.0076,0.0052,0.0155,0.0323,0.0364,0.0444,0.0492,0.0559,0.0561,0.0507,0.0503,0.053,0.0529,0.0528,0.0527,0,-0.0411,-0.0437,-0.0487,-0.0518,-0.053,-0.0563,-0.0551,-0.0534,-0.0488,-0.0407,-0.0383,-0.0233,-0.0088,0.0038,0.0259,0.0356,0.051,0.0558,0.0586,0.0633,0.0547,0.0534,0.0671,0.0672,0.0672,0.0672,0.0672,0,-0.0434,-0.0475,-0.0542,-0.0576,-0.0603,-0.0637,-0.0635,-0.0591,-0.0536,-0.0394,-0.0322,-0.019,-0.0085,0.0169,0.0382,0.0553,0.0507,0.0723,0.0735,0.0533,0.0567,0.0554,0.0541,0.0894,0.0896,0.0898,0.0899,0,-0.0469,-0.0509,-0.0555,-0.0642,-0.0672,-0.0669,-0.0651,-0.06,-0.0497,-0.0422,-0.028,-0.0207,0.0049,0.0303,0.0502,0.0611,0.0692,0.0759,0.0613,0.0805,0.0744,0.0775,0.0757,0.0913,0.0912,0.0911,0.091,0.091,-0.0485,-0.0538,-0.0616,-0.0692,-0.0722,-0.0688,-0.0663,-0.0585,-0.0499,-0.0306,-0.0229,0.0012,0.0228,0.062,0.0656,0.076,0.0797,0.0881,0.0878,0.0872,0.0836,0.0775,0.0942,0.0941,0.094,0.0939,0.0938,0,-0.0476,-0.0564,-0.0649,-0.0709,-0.0724,-0.0748,-0.0654,-0.0574,-0.0466,-0.0211,-0.0094,0.0261,0.0544,0.0702,0.0938,0.0985,0.0966,0.0922,0.0948,0.0941,0.0932,0.0895,0.102,0.1018,0.1016,0.1015,0,0,-0.0473,-0.0563,-0.0629,-0.0691,-0.0737,-0.0708,-0.0656,-0.055,-0.0342,-0.0109,0.0189,0.0526,0.0769,0.0932,0.0952,0.1002,0.091,0.0958,0.0924,0.0947,0.0934,0.0981,0.0925,0,0,0,0,0]}],[{"header":{"parameterUnit":"m.s-1","parameterCategory":2,"la1":30.2991,"la2":30.254,"lo1":-89.0895,"lo2":-89.0444,"dy":0.0017,"dx":0.0017,"nx":28,"ny":28,"refTime":"2025-07-13T03:00:00:Z","depth":"4","parameterNumber":2,"parameterNumberName":"U-component_of_CURRENTS"},"data":[0,0,0,0,0,0,0,0,0,0,0,0,0,0,0,0,0,0,0,0,0,0,0,0,0,0,0,0,0,0,0,0,0,0,0,0,0,0,0,0,0,0,0,0,0,0,0,0,0,0,0,0,0,0,0,0,0,0,-0.0707,-0.0706,0,-0.0723,-0.0724,-0.0724,-0.0844,-0.0846,-0.0848,-0.085,-0.1005,-0.1007,-0.1009,0,0,0,0,0,0,0,0,0,0,0,0,0,-0.0679,-0.068,-0.0707,-0.0706,-0.0706,-0.0723,-0.0724,-0.0725,-0.0844,-0.0846,-0.0849,-0.0851,-0.1004,-0.1006,-0.1009,0,0,0,0,0,0,0,0,0,0,0,0,0,-0.0701,-0.0681,-0.0707,-0.0761,-0.0765,-0.0722,-0.0724,-0.0725,-0.0843,-0.0846,-0.085,-0.0853,-0.1003,-0.1006,-0.1009,-0.0963,0,0,-0.1019,-0.102,0,0,0,0,0,0,0,0,-0.07,-0.0703,-0.0753,-0.0757,-0.0762,-0.0777,-0.077,-0.0809,-0.0842,-0.0822,-0.085,-0.0854,-0.0934,-0.0943,-0.0948,-0.097,-0.0977,-0.1019,-0.1021,-0.1022,-0.1023,0,0,0,0,0,0,0,-0.0698,-0.0702,-0.0722,-0.0752,-0.0757,-0.0749,-0.0758,-0.0777,-0.0868,-0.0824,-0.0831,-0.0818,-0.0939,-0.0945,-0.0953,-0.0979,-0.1019,-0.1022,-0.1024,-0.1025,-0.1173,-0.1175,0,0,0,0,0,0,-0.0681,-0.0701,-0.0721,-0.0721,-0.0729,-0.0747,-0.0757,-0.0776,-0.0865,-0.0879,-0.0816,-0.0824,-0.0938,-0.0949,-0.0959,-0.1081,-0.1022,-0.1025,-0.1027,-0.1171,-0.1173,-0.1176,0,0,0,0,0,0,-0.0681,-0.0684,-0.072,-0.0703,-0.0706,-0.0744,-0.0764,-0.0774,-0.0822,-0.0856,-0.0874,-0.0856,-0.0941,-0.0955,-0.1029,-0.1082,-0.1027,-0.1029,-0.1168,-0.1172,-0.1174,-0.1216,0,0,0,0,0,0,-0.0681,-0.0685,-0.0703,-0.0703,-0.0706,-0.0743,-0.076,-0.0772,-0.0802,-0.0815,-0.0895,-0.0911,-0.0944,-0.1025,-0.1032,-0.1085,-0.1032,-0.1166,-0.117,-0.1173,-0.1212,-0.122,-0.1227,0,0,0,0,0,-0.068,-0.0689,-0.0704,-0.0706,-0.0728,-0.0744,-0.0748,-0.0788,-0.0801,-0.084,-0.0893,-0.0911,-0.1056,-0.1028,-0.1037,-0.1092,-0.1164,-0.1169,-0.1173,-0.1208,-0.1218,-0.1226,0,0,0,0,0,0,-0.069,-0.0701,-0.0718,-0.0733,-0.0758,-0.0762,-0.0779,-0.0796,-0.0861,-0.0876,-0.0922,-0.0942,-0.103,-0.1047,-0.1015,-0.1148,-0.1118,-0.1124,-0.1141,-0.1151,-0.1158,-0.112,-0.1034,0,0,0,0,0,-0.0693,-0.0704,-0.0722,-0.0734,-0.0749,-0.0766,-0.0776,-0.0802,-0.084,-0.0873,-0.0936,-0.0995,-0.1043,-0.1088,-0.1135,-0.1192,-0.117,-0.1238,-0.1246,-0.1252,-0.1229,-0.1255,-0.1261,-0.1191,-0.1191,-0.1191,0,0,-0.0687,-0.0697,-0.0701,-0.0735,-0.0753,-0.0772,-0.0786,-0.0809,-0.0835,-0.0874,-0.0963,-0.1019,-0.1062,-0.1145,-0.1186,-0.1175,-0.126,-0.1258,-0.1263,-0.1235,-0.126,-0.1266,-0.1272,-0.1194,-0.1193,-0.1193,0,0,-0.0676,-0.0709,-0.0718,-0.0747,-0.0772,-0.0782,-0.0796,-0.0839,-0.0886,-0.0962,-0.0992,-0.1064,-0.1173,-0.1198,-0.1222,-0.1286,-0.1293,-0.134,-0.1356,-0.1383,-0.1388,-0.1392,-0.136,-0.1361,-0.1352,-0.1352,-0.1353,0,-0.0682,-0.0692,-0.0724,-0.0749,-0.0762,-0.0791,-0.081,-0.0844,-0.0915,-0.0943,-0.1013,-0.1146,-0.1184,-0.1233,-0.1277,-0.1299,-0.1311,-0.1317,-0.1389,-0.1393,-0.1397,-0.1363,-0.1364,-0.1355,-0.1355,-0.1354,-0.1354,0,-0.0673,-0.0698,-0.0707,-0.0748,-0.0778,-0.0794,-0.0839,-0.0894,-0.0959,-0.0991,-0.1101,-0.118,-0.1257,-0.1299,-0.1315,-0.1368,-0.1366,-0.1387,-0.1358,-0.1406,-0.1368,-0.1368,-0.1359,-0.1358,-0.1357,-0.1356,0,0,-0.0658,-0.0693,-0.0702,-0.0725,-0.0779,-0.08,-0.0848,-0.089,-0.092,-0.1044,-0.1102,-0.121,-0.1266,-0.1293,-0.1341,-0.1377,-0.1408,-0.1412,-0.1413,-0.1362,-0.1451,-0.129,-0.1273,-0.1476,-0.1476,-0.1477,-0.1408,0,-0.065,-0.0673,-0.0699,-0.0733,-0.0756,-0.0807,-0.0856,-0.0903,-0.0971,-0.1043,-0.1119,-0.1204,-0.1259,-0.1329,-0.1371,-0.1404,-0.1414,-0.1422,-0.1426,-0.1423,-0.1261,-0.127,-0.1479,-0.1408,-0.1408,-0.1408,-0.1407,0,-0.0641,-0.0658,-0.0682,-0.0738,-0.0758,-0.0789,-0.0862,-0.0914,-0.0985,-0.1053,-0.1139,-0.1201,-0.1264,-0.1323,-0.1385,-0.1409,-0.1422,-0.1443,-0.1442,-0.1268,-0.1261,-0.1356,-0.1406,-0.1406,-0.1407,-0.1407,-0.1407,0,-0.0609,-0.0652,-0.0664,-0.0685,-0.0753,-0.079,-0.0842,-0.0917,-0.095,-0.1055,-0.1087,-0.1193,-0.1247,-0.1318,-0.1357,-0.14,-0.1399,-0.1452,-0.1297,-0.1284,-0.1432,-0.1428,-0.1461,-0.1461,-0.1461,-0.1461,-0.1461,0,-0.059,-0.0609,-0.0654,-0.0668,-0.071,-0.0787,-0.0853,-0.0907,-0.0973,-0.0992,-0.1095,-0.1113,-0.1262,-0.1277,-0.1334,-0.1287,-0.1375,-0.1266,-0.1255,-0.145,-0.1449,-0.1429,-0.1427,-0.1458,-0.1459,-0.1459,-0.146,0,-0.0567,-0.0584,-0.0603,-0.0665,-0.0695,-0.0739,-0.0836,-0.0859,-0.0942,-0.0966,-0.0994,-0.1046,-0.1066,-0.1135,-0.1207,-0.1208,-0.1212,-0.1164,-0.1307,-0.131,-0.1084,-0.1085,-0.0994,-0.0988,-0.0982,-0.0978,-0.0974,0,-0.0552,-0.0559,-0.0598,-0.0597,-0.0627,-0.071,-0.0748,-0.0845,-0.0858,-0.0905,-0.088,-0.0889,-0.0929,-0.0888,-0.0978,-0.1007,-0.1013,-0.1008,-0.1096,-0.1037,-0.1037,-0.1046,-0.1054,-0.0966,-0.0964,-0.0963,-0.0962,0,-0.0522,-0.0532,-0.0544,-0.0552,-0.057,-0.0611,-0.0672,-0.0681,-0.0777,-0.0809,-0.0777,-0.0776,-0.0742,-0.0794,-0.0787,-0.0828,-0.1029,-0.0953,-0.0967,-0.1049,-0.1002,-0.1009,-0.1023,-0.0943,-0.0946,-0.0948,-0.0949,0,-0.05,-0.0486,-0.0485,-0.05,-0.0497,-0.0501,-0.0575,-0.0597,-0.0634,-0.069,-0.0664,-0.0684,-0.0724,-0.0689,-0.0698,-0.07,-0.072,-0.0766,-0.079,-0.0811,-0.0783,-0.0698,-0.0509,0,0,0,0,0,-0.0469,-0.0439,-0.0429,-0.0421,-0.0413,-0.0425,-0.049,-0.0565,-0.0651,-0.0599,-0.0645,-0.062,-0.0597,-0.0597,-0.0564,-0.0594,-0.0717,-0.0553,-0.0783,-0.0841,-0.0862,-0.0846,0,0,0,0,0,0,-0.0434,-0.0415,-0.0405,-0.0347,-0.0331,-0.033,-0.0378,-0.0448,-0.0461,-0.0536,-0.0528,-0.0557,-0.0543,-0.0587,-0.0533,-0.0534,-0.0668,-0.0559,-0.0557,-0.0829,-0.0848,-0.0865,-0.0856,0,0,0,0,0]},{"header":{"parameterUnit":"m.s-1","parameterCategory":2,"la1":30.2991,"la2":30.254,"lo1":-89.0895,"lo2":-89.0444,"dy":0.0017,"dx":0.0017,"nx":28,"ny":28,"refTime":"2025-07-13T03:00:00:Z","depth":"4","parameterNumber":3,"parameterNumberName":"V-component_of_CURRENTS"},"data":[0,0,0,0,0,0,0,0,0,0,0,0,0,0,0,0,0,0,0,0,0,0,0,0,0,0,0,0,0,0,0,0,0,0,0,0,0,0,0,0,0,0,0,0,0,0,0,0,0,0,0,0,0,0,0,0,0,0,-0.0382,-0.0382,0,-0.0412,-0.0413,-0.0413,-0.0396,-0.0395,-0.0394,-0.0393,-0.0386,-0.0387,-0.0387,0,0,0,0,0,0,0,0,0,0,0,0,0,-0.0341,-0.0342,-0.0382,-0.0382,-0.0383,-0.0412,-0.0413,-0.0413,-0.0396,-0.0395,-0.0394,-0.0393,-0.0386,-0.0387,-0.0387,0,0,0,0,0,0,0,0,0,0,0,0,0,-0.0365,-0.0342,-0.0382,-0.0377,-0.0377,-0.0412,-0.0413,-0.0413,-0.0396,-0.0395,-0.0394,-0.0392,-0.0385,-0.0386,-0.0387,-0.0422,0,0,-0.0391,-0.0391,0,0,0,0,0,0,0,0,-0.0363,-0.0366,-0.0378,-0.0377,-0.0377,-0.0398,-0.0395,-0.0414,-0.0397,-0.039,-0.0393,-0.0392,-0.0387,-0.0388,-0.0398,-0.0421,-0.0421,-0.0391,-0.0391,-0.0392,-0.0392,0,0,0,0,0,0,0,-0.0362,-0.0365,-0.0395,-0.0378,-0.0378,-0.0384,-0.0385,-0.0399,-0.0396,-0.0391,-0.0389,-0.0391,-0.0386,-0.0398,-0.0398,-0.0421,-0.0391,-0.0391,-0.0392,-0.0392,-0.0469,-0.047,0,0,0,0,0,0,-0.0356,-0.0364,-0.0394,-0.0396,-0.0366,-0.0385,-0.0387,-0.0394,-0.0397,-0.0396,-0.0392,-0.039,-0.0397,-0.0397,-0.0398,-0.0443,-0.0392,-0.0393,-0.0393,-0.0468,-0.0469,-0.0471,0,0,0,0,0,0,-0.0355,-0.0359,-0.0393,-0.0379,-0.0384,-0.0387,-0.0395,-0.0395,-0.0405,-0.0398,-0.0397,-0.0402,-0.0395,-0.0396,-0.042,-0.0442,-0.0393,-0.0394,-0.0466,-0.0468,-0.047,-0.0529,0,0,0,0,0,0,-0.0354,-0.0358,-0.0372,-0.0379,-0.0384,-0.0418,-0.0396,-0.0396,-0.0408,-0.0406,-0.0406,-0.0404,-0.0394,-0.0419,-0.0421,-0.0442,-0.0395,-0.0464,-0.0467,-0.047,-0.0526,-0.0533,-0.054,0,0,0,0,0,-0.0352,-0.0377,-0.0372,-0.0376,-0.0399,-0.0419,-0.0423,-0.0421,-0.041,-0.0424,-0.0426,-0.0404,-0.0436,-0.0421,-0.0423,-0.0445,-0.0463,-0.0466,-0.0469,-0.0523,-0.0532,-0.054,0,0,0,0,0,0,-0.0371,-0.0377,-0.0372,-0.0399,-0.0408,-0.0415,-0.0432,-0.0428,-0.0443,-0.044,-0.0428,-0.0428,-0.0458,-0.0447,-0.043,-0.0476,-0.0444,-0.0448,-0.0484,-0.0493,-0.05,-0.0478,-0.0396,0,0,0,0,0,-0.0381,-0.0398,-0.0401,-0.0424,-0.0428,-0.0431,-0.0442,-0.0439,-0.0448,-0.0453,-0.046,-0.0464,-0.0476,-0.0479,-0.0491,-0.0519,-0.0469,-0.0533,-0.054,-0.0546,-0.0532,-0.0485,-0.0485,-0.0482,-0.0482,-0.0481,0,0,-0.0397,-0.0402,-0.0413,-0.0429,-0.0436,-0.0456,-0.0435,-0.0453,-0.0476,-0.0451,-0.0494,-0.0495,-0.0491,-0.0523,-0.0534,-0.0514,-0.0523,-0.0551,-0.0556,-0.0537,-0.0488,-0.0488,-0.0487,-0.0484,-0.0483,-0.0483,0,0,-0.043,-0.0438,-0.0457,-0.0468,-0.0478,-0.0483,-0.0488,-0.0503,-0.0513,-0.0553,-0.0539,-0.0553,-0.0582,-0.0579,-0.0579,-0.0634,-0.0566,-0.0638,-0.0652,-0.0608,-0.0607,-0.0605,-0.0541,-0.0533,-0.0636,-0.0636,-0.0636,0,-0.0443,-0.0468,-0.0469,-0.0488,-0.0502,-0.0495,-0.0519,-0.0537,-0.0563,-0.0572,-0.0573,-0.0604,-0.0608,-0.0622,-0.0639,-0.0649,-0.0596,-0.062,-0.0614,-0.0612,-0.0609,-0.0543,-0.0534,-0.064,-0.0639,-0.0639,-0.0639,0,-0.048,-0.0507,-0.0521,-0.054,-0.0562,-0.0581,-0.0597,-0.0622,-0.0636,-0.0643,-0.067,-0.0678,-0.0684,-0.0696,-0.0685,-0.0675,-0.0634,-0.0631,-0.0586,-0.0612,-0.0542,-0.0531,-0.0644,-0.0643,-0.0642,-0.0641,0,0,-0.0484,-0.0533,-0.0539,-0.0558,-0.0586,-0.0605,-0.0649,-0.0673,-0.0689,-0.0716,-0.0735,-0.0759,-0.0741,-0.0739,-0.0727,-0.0689,-0.0638,-0.0647,-0.0644,-0.0572,-0.0508,-0.0419,-0.0398,-0.0622,-0.062,-0.0619,-0.0465,0,-0.0504,-0.0548,-0.0574,-0.0627,-0.0648,-0.0667,-0.0707,-0.0731,-0.075,-0.0772,-0.0763,-0.0783,-0.0763,-0.0767,-0.0727,-0.0669,-0.0611,-0.0677,-0.0503,-0.0497,-0.0405,-0.0384,-0.0615,-0.0457,-0.0454,-0.0452,-0.0451,0,-0.0524,-0.055,-0.0601,-0.066,-0.0671,-0.0708,-0.0752,-0.0791,-0.081,-0.0822,-0.0821,-0.081,-0.0781,-0.0762,-0.064,-0.0677,-0.0587,-0.0529,-0.0522,-0.0405,-0.0387,-0.0426,-0.043,-0.0431,-0.0433,-0.0434,-0.0436,0,-0.0513,-0.0573,-0.0613,-0.0632,-0.0695,-0.0728,-0.0765,-0.08,-0.0822,-0.085,-0.0844,-0.0819,-0.0794,-0.0699,-0.0585,-0.0604,-0.0424,-0.0444,-0.027,-0.0263,-0.0363,-0.0366,-0.0327,-0.0327,-0.0328,-0.0328,-0.0328,0,-0.0518,-0.0554,-0.0612,-0.0635,-0.0689,-0.0734,-0.079,-0.0822,-0.0846,-0.0837,-0.0861,-0.0819,-0.0769,-0.0668,-0.057,-0.0371,-0.0407,-0.0246,-0.021,-0.0393,-0.0402,-0.0354,-0.0359,-0.0322,-0.0323,-0.0325,-0.0326,0,-0.0509,-0.0545,-0.0595,-0.066,-0.069,-0.0731,-0.0807,-0.0825,-0.0853,-0.0838,-0.084,-0.0802,-0.0664,-0.0581,-0.0421,-0.0329,-0.0178,-0.0092,-0.027,-0.0252,-0.0048,-0.0058,0.0113,0.0117,0.0121,0.0124,0.0127,0,-0.051,-0.0534,-0.0608,-0.0642,-0.0679,-0.0746,-0.0781,-0.0831,-0.0826,-0.0791,-0.0751,-0.0654,-0.0601,-0.03,-0.0244,-0.0048,-0.0018,0.0057,-0.0013,-0.0016,0.0001,-0.0016,-0.0031,0.0133,0.0134,0.0135,0.0136,0,-0.0506,-0.0532,-0.0569,-0.0631,-0.0678,-0.0733,-0.077,-0.0754,-0.0762,-0.0774,-0.0609,-0.0495,-0.0333,-0.0206,-0.0058,0.0074,-0.0011,0.0097,0.0089,0.0024,0.0011,0.002,0.0,0.015,0.0148,0.0147,0.0146,0,-0.0505,-0.0521,-0.0564,-0.0617,-0.0675,-0.0693,-0.0725,-0.067,-0.066,-0.0581,-0.051,-0.0383,-0.0325,-0.0134,0.0004,0.0131,0.0156,0.0189,0.0176,0.0162,0.0111,0.0097,0.0321,0,0,0,0,0,-0.0497,-0.051,-0.0551,-0.0609,-0.0657,-0.0692,-0.0699,-0.0709,-0.0679,-0.0523,-0.0507,-0.0338,-0.012,-0.0063,0.0093,0.0031,0.0129,0.0214,0.0148,0.0224,0.0209,0.0146,0,0,0,0,0,0,-0.0498,-0.0526,-0.0534,-0.0579,-0.062,-0.0669,-0.067,-0.0652,-0.0554,-0.0498,-0.038,-0.0298,-0.0108,-0.0206,0.0093,0.0123,0.0109,0.0303,0.0307,0.0233,0.0219,0.0206,0.0137,0,0,0,0,0]}]]